Location: Brede
(50.9167°N, 0.6000°E)
Time: 01:16:41
(UTC+00:00)

Cosmos 1634 Rocket - Pass Details

Date: 08 August 2020
Orbit: 959 x 992 km, 82.9° (Epoch: 19 September)

Event Time Altitude Azimuth Distance (km) Brightness Sun altitude
Exits shadow 02:15:59 26° 223° (SW) 1,827 4.8 -17.0°
Maximum altitude 02:19:20 51° 286° (WNW) 1,221 4.4 -16.7°
Drops below altitude 10° 02:25:24 10° 2° (N) 2,726 7.2 -16.2°
Sets 02:28:01 0° 8° (N) 3,673 8.1 -15.9°
